Location: Berlin
(38.3226°N, 75.2177°W)
Time: 10:26:28
(UTC+00:00)

Cosmos 1908 - Pass Details

Date: 26 October 2020
Orbit: 512 x 529 km, 82.5° (Epoch: 29 November)

Event Time Altitude Azimuth Distance (km) Brightness Sun altitude
Exits shadow 10:08:06 27° 271° (W) 1,030 4.1 -15.0°
Maximum altitude 10:08:09 27° 270° (W) 1,029 4.1 -14.9°
Drops below altitude 10° 10:11:29 10° 211° (SSW) 1,770 5.7 -14.3°
Sets 10:13:50 0° 199° (SSW) 2,653 6.7 -13.8°
